Location: Lavington
(51.2833°N, 1.9833°W)
Time: 19:22:19
(UTC+00:00)

ATLAS 3B R/B - Pass Details

Date: 01 June 2020
Orbit: 1024 x 1171 km, 63.8° (Epoch: 15 June)

Event Time Altitude Azimuth Distance (km) Brightness Sun altitude
Rises 23:06:37 0° 315° (NW) 3,809 6.7 -15.4°
Reaches altitude 10° 23:09:12 10° 315° (NW) 2,867 5.9 -15.4°
Maximum altitude 23:15:59 81° 230° (SW) 1,091 2.7 -15.7°
Enters shadow 23:21:10 19° 145° (SE) 2,314 3.9 -15.8°
